Location: Auttagershofen
(48.1940°N, 10.0237°E)
Time: 19:46:27
(UTC+00:00)

CORIOLIS - Pass Details

Date: 18 January 2026
Orbit: 816 x 835 km, 98.7° (Epoch: 15 February)

Event Time Altitude Azimuth Distance (km) Brightness Sun altitude
Rises 06:21:53 0° 10° (N) 3,398 7.2 -7.0°
Reaches altitude 10° 06:24:18 10° 6° (N) 2,459 6.5 -6.6°
Maximum altitude 06:29:34 52° 292° (WNW) 1,032 4.3 -5.8°
Drops below altitude 10° 06:34:48 10° 217° (SW) 2,437 6.5 -5.0°
Sets 06:37:11 0° 212° (SSW) 3,364 7.3 -4.7°
